Find Starlink 5906

NORAD ID: 55962 Int'l Des: 2023-037 Owner: SPXS Country: US Constellation: starlink operational
LEOCIRCULAR

Live Position

Loading 3D Globe...

About Starlink 5906

Description loading...

Upcoming Passes

Passes for default location (London). Set your location on the main map for personalized predictions.

Altitude History

Loading altitude history...

Two-Line Element Set

1 55962U 23037BA 26105.90101895 .00000516 00000-0 51066-4 0 9993
2 55962 70.0001 170.7663 0003024 278.5518 81.5298 14.98324286170044
Epoch: Apr 15, 2026 • Age: 14 hours

Current Status

Altitude 583.1 km
Velocity 7.57 km/s
Sub-Earth Point -33.29°S, 12.57°W
Launch Date Mar 17, 2023
Age 3 years
Type internet

Technical Details

Classification Payload
Mass 305.00 kg
Dry Mass 290.00 kg
Total Mass 305.00 kg
Length 0.20 m
Diameter 2.80 m
Span 9.00 m
Shape Box + pan
Manufacturer SPXS
Bus Type Starlink
Phase Status In Orbit
Owner/State SPXS/US

Most Searched